| time (UTC) | temp C | wind direction | speed KPH | gust KPH | rain 1hr cm | rain 24hr cm | rain mn cm | humidity % | barometer mb |
| 20260506223110 | 2 | 95 | 3.2 | 8.0 | 0.00 | 1.17 | 1.17 | 77 | 1013.3 |
| 20260506222608 | 2 | 35 | 9.7 | 11.3 | 0.00 | 1.17 | 1.17 | 79 | 1013.5 |
| 20260506222104 | 2 | 39 | 6.4 | 9.7 | 0.00 | 1.17 | 1.17 | 79 | 1013.7 |
| 20260506221602 | 2 | 50 | 9.7 | 11.3 | 0.00 | 1.17 | 1.17 | 79 | 1013.7 |
| 20260506221100 | 2 | 359 | 0.0 | 8.0 | 0.18 | 1.17 | 1.17 | 83 | 1013.7 |
| 20260506220555 | 3 | 66 | 4.8 | 8.0 | 0.30 | 1.14 | 1.14 | 79 | 1013.8 |
| 20260506220051 | 2 | 46 | 1.6 | 4.8 | 0.48 | 1.12 | 1.12 | 82 | 1014.0 |
| 20260506215548 | 3 | 73 | 8.0 | 11.3 | 0.61 | 1.09 | 1.09 | 80 | 1014.0 |
| 20260506215044 | 3 | 129 | 3.2 | 3.2 | 0.61 | 1.04 | 1.04 | 80 | 1013.7 |
| 20260506214541 | 3 | 100 | 4.8 | 4.8 | 0.43 | 0.99 | 0.99 | 80 | 1014.1 |
| 20260506214038 | 2 | 80 | 4.8 | 8.0 | 0.48 | 0.94 | 0.94 | 83 | 1014.2 |
| 20260506213536 | 2 | 168 | 8.0 | 9.7 | 0.30 | 0.89 | 0.89 | 83 | 1014.2 |
| 20260506213033 | 2 | 152 | 3.2 | 4.8 | 0.43 | 0.86 | 0.86 | 83 | 1014.3 |
| 20260506212530 | 2 | 332 | 1.6 | 4.8 | 0.30 | 0.81 | 0.81 | 83 | 1014.4 |
| 20260506212025 | 2 | 115 | 4.8 | 4.8 | 0.30 | 0.79 | 0.79 | 83 | 1014.2 |
| 20260506211521 | 2 | 323 | 0.0 | 1.6 | 0.30 | 0.76 | 0.76 | 78 | 1014.5 |
| 20260506211018 | 2 | 323 | 1.6 | 1.6 | 0.30 | 0.74 | 0.74 | 79 | 1014.4 |
| 20260506210515 | 2 | 316 | 1.6 | 1.6 | 0.30 | 0.69 | 0.69 | 79 | 1014.5 |
| 20260506210011 | 2 | 326 | 0.0 | 0.0 | 0.30 | 0.66 | 0.66 | 78 | 1014.5 |
| 20260506205508 | 2 | 329 | 0.0 | 3.2 | 0.30 | 0.64 | 0.64 | 83 | 1014.5 |
| 20260506205003 | 2 | 312 | 3.2 | 3.2 | 0.30 | 0.61 | 0.61 | 80 | 1014.4 |
| 20260506204502 | 2 | 315 | 3.2 | 3.2 | 0.36 | 0.58 | 0.58 | 84 | 1014.7 |
| 20260506203958 | 1 | 344 | 1.6 | 4.8 | 0.30 | 0.56 | 0.56 | 87 | 1014.9 |
| 20260506203456 | 1 | 340 | 3.2 | 4.8 | 0.30 | 0.53 | 0.53 | 89 | 1015.1 |
| 20260506202953 | 1 | 22 | 3.2 | 3.2 | 0.30 | 0.51 | 0.51 | 89 | 1014.8 |
| 20260506202450 | 1 | 329 | 4.8 | 8.0 | 0.30 | 0.48 | 0.48 | 90 | 1014.9 |
| 20260506201946 | 1 | 336 | 1.6 | 4.8 | 0.30 | 0.46 | 0.46 | 90 | 1014.7 |
| 20260506201444 | 1 | 8 | 4.8 | 8.0 | 0.30 | 0.43 | 0.43 | 90 | 1014.9 |
| 20260506200940 | 1 | 331 | 4.8 | 4.8 | 0.18 | 0.41 | 0.41 | 91 | 1015.0 |
| 20260506200437 | 1 | 344 | 4.8 | 4.8 | 0.13 | 0.38 | 0.38 | 90 | 1015.0 |
| 20260506195933 | 1 | 353 | 6.4 | 8.0 | 0.18 | 0.36 | 0.36 | 90 | 1015.0 |
| 20260506195430 | 1 | 334 | 4.8 | 4.8 | 0.30 | 0.36 | 0.36 | 91 | 1015.0 |
| 20260506194927 | 1 | 335 | 6.4 | 8.0 | 0.30 | 0.33 | 0.33 | 91 | 1015.0 |
| 20260506194424 | 1 | 327 | 3.2 | 3.2 | 0.18 | 0.30 | 0.30 | 93 | 1014.8 |
| 20260506193921 | 1 | 10 | 3.2 | 8.0 | 0.13 | 0.28 | 0.28 | 93 | 1015.1 |
| 20260506193418 | 1 | 336 | 4.8 | 8.0 | 0.13 | 0.28 | 0.28 | 91 | 1015.0 |
| 20260506192915 | 0 | 338 | 8.0 | 11.3 | 0.18 | 0.25 | 0.25 | 91 | 1015.1 |
| 20260506192412 | 0 | 302 | 8.0 | 9.7 | 0.18 | 0.25 | 0.25 | 91 | 1015.1 |
| 20260506191908 | 0 | 327 | 9.7 | 11.3 | 0.18 | 0.23 | 0.23 | 92 | 1015.0 |
| 20260506191405 | 0 | 337 | 9.7 | 11.3 | 0.18 | 0.23 | 0.23 | 92 | 1014.9 |
| 20260506190902 | 0 | 325 | 4.8 | 9.7 | 0.00 | 0.20 | 0.20 | 92 | 1015.0 |
| 20260506190358 | 1 | 307 | 0.0 | 0.0 | 0.00 | 0.20 | 0.20 | 89 | 1015.1 |
| 20260506185855 | 2 | 348 | 0.0 | 0.0 | 0.13 | 0.20 | 0.20 | 89 | 1015.0 |
| 20260506185352 | 2 | 344 | 0.0 | 0.0 | 0.00 | 0.18 | 0.18 | 90 | 1015.3 |
| 20260506184849 | 2 | 356 | 0.0 | 0.0 | 0.18 | 0.18 | 0.18 | 91 | 1015.0 |
| 20260506184346 | 2 | 356 | 0.0 | 0.0 | 0.18 | 0.18 | 0.18 | 92 | 1015.4 |
| 20260506183844 | 2 | 39 | 0.0 | 0.0 | 0.00 | 0.15 | 0.15 | 93 | 1015.3 |
| 20260506183339 | 1 | 37 | 0.0 | 0.0 | 0.00 | 0.15 | 0.15 | 94 | 1015.4 |
| 20260506182836 | 1 | 33 | 0.0 | 0.0 | 0.13 | 0.15 | 0.15 | 96 | 1015.5 |
| 20260506182333 | 1 | 30 | 0.0 | 0.0 | 0.00 | 0.13 | 0.13 | 97 | 1015.3 |
| 20260506181831 | 0 | 28 | 0.0 | 0.0 | 0.00 | 0.13 | 0.13 | 98 | 1015.1 |
| 20260506181329 | 0 | 25 | 0.0 | 0.0 | 0.00 | 0.13 | 0.13 | 98 | 1015.4 |
| 20260506180825 | 0 | 24 | 0.0 | 0.0 | 0.00 | 0.13 | 0.13 | 98 | 1015.5 |
| 20260506180321 | 0 | 22 | 0.0 | 0.0 | 0.00 | 0.13 | 0.13 | 98 | 1015.4 |
| 20260506175817 | 0 | 20 | 0.0 | 0.0 | 0.18 | 0.13 | 0.13 | 98 | 1015.1 |
| 20260506175315 | 1 | 18 | 0.0 | 0.0 | 0.18 | 0.13 | 0.13 | 98 | 1015.0 |
| 20260506174812 | 1 | 15 | 0.0 | 0.0 | 0.00 | 0.10 | 0.10 | 98 | 1015.0 |
| 20260506174309 | 0 | 344 | 0.0 | 0.0 | 0.00 | 0.10 | 0.10 | 98 | 1014.8 |
| 20260506173807 | 0 | 12 | 0.0 | 0.0 | 0.00 | 0.10 | 0.10 | 98 | 1014.9 |
| 20260506173303 | 0 | 10 | 0.0 | 0.0 | 0.13 | 0.10 | 0.10 | 98 | 1014.9 |
| 20260506172801 | 0 | 7 | 0.0 | 0.0 | 0.13 | 0.10 | 0.10 | 99 | 1015.1 |
| 20260506172257 | 0 | 4 | 0.0 | 0.0 | 0.00 | 0.08 | 0.08 | 99 | 1014.9 |
| 20260506171755 | 0 | 1 | 0.0 | 0.0 | 0.00 | 0.08 | 0.08 | 99 | 1014.9 |
| 20260506171252 | 0 | 358 | 0.0 | 0.0 | 0.18 | 0.08 | 0.08 | 99 | 1014.8 |
| 20260506170749 | 0 | 355 | 0.0 | 0.0 | 0.18 | 0.08 | 0.08 | 99 | 1014.9 |
| 20260506170245 | 0 | 352 | 0.0 | 0.0 | 0.00 | 0.05 | 0.05 | 99 | 1014.7 |
| 20260506165744 | 0 | 350 | 0.0 | 0.0 | 0.00 | 0.05 | 0.05 | 99 | 1014.7 |
| 20260506165241 | 0 | 349 | 0.0 | 0.0 | 0.00 | 0.05 | 0.05 | 99 | 1014.5 |
| 20260506164738 | 0 | 349 | 0.0 | 0.0 | 0.00 | 0.05 | 0.05 | 99 | 1014.3 |
| 20260506164235 | 0 | 339 | 0.0 | 0.0 | 0.13 | 0.05 | 0.05 | 99 | 1014.1 |
| 20260506163732 | 0 | 346 | 0.0 | 0.0 | 0.13 | 0.05 | 0.05 | 99 | 1014.0 |
| 20260506163226 | 0 | 345 | 0.0 | 0.0 | 0.00 | 0.03 | 0.03 | 99 | 1014.1 |
| 20260506162722 | 0 | 344 | 0.0 | 0.0 | 0.00 | 0.03 | 0.03 | 99 | 1014.1 |
| 20260506162221 | 0 | 343 | 0.0 | 0.0 | 0.00 | 0.03 | 0.03 | 99 | 1014.1 |
| 20260506161718 | 0 | 342 | 0.0 | 0.0 | 0.00 | 0.03 | 0.03 | 99 | 1014.1 |
| 20260506161215 | 0 | 342 | 0.0 | 0.0 | 0.00 | 0.03 | 0.03 | 99 | 1014.1 |
| 20260506160712 | 0 | 341 | 0.0 | 0.0 | 0.00 | 0.03 | 0.03 | 99 | 1014.1 |
| 20260506160209 | 0 | 340 | 0.0 | 0.0 | 0.00 | 0.03 | 0.03 | 99 | 1014.1 |
| 20260506155707 | 0 | 340 | 0.0 | 0.0 | 0.00 | 0.03 | 0.03 | 99 | 1013.8 |
| 20260506155204 | 0 | 339 | 0.0 | 0.0 | 0.00 | 0.03 | 0.03 | 99 | 1014.1 |
| 20260506153311 | 0 | 338 | 0.0 | 0.0 | 0.00 | 0.03 | 0.03 | 99 | 1013.8 |
| 20260506152808 | 0 | 338 | 0.0 | 0.0 | 0.00 | 0.03 | 0.03 | 99 | 1013.8 |
| 20260506152306 | 0 | 337 | 0.0 | 0.0 | 0.00 | 0.03 | 0.03 | 99 | 1013.8 |
| 20260506151804 | 0 | 337 | 0.0 | 0.0 | 0.00 | 0.03 | 0.03 | 99 | 1013.6 |
| 20260506151301 | 0 | 337 | 0.0 | 0.0 | 0.00 | 0.03 | 0.03 | 99 | 1013.8 |
| 20260506150757 | 0 | 337 | 0.0 | 0.0 | 0.00 | 0.03 | 0.03 | 99 | 1013.5 |
| 20260506150303 | 0 | 337 | 0.0 | 0.0 | 0.00 | 0.03 | 0.03 | 99 | 1013.5 |
| 20260506145751 | 0 | 336 | 0.0 | 0.0 | 0.00 | 0.03 | 0.03 | 99 | 1013.6 |
| 20260506145247 | 0 | 336 | 0.0 | 0.0 | 0.00 | 0.03 | 0.03 | 99 | 1013.3 |
| 20260506144745 | 0 | 335 | 0.0 | 0.0 | 0.00 | 0.03 | 0.03 | 99 | 1013.3 |
| 20260506144242 | 0 | 336 | 0.0 | 0.0 | 0.00 | 0.03 | 0.03 | 99 | 1013.1 |
| 20260506143740 | 0 | 336 | 0.0 | 0.0 | 0.00 | 0.03 | 0.03 | 99 | 1013.3 |
| 20260506143237 | 0 | 337 | 0.0 | 0.0 | 0.00 | 0.03 | 0.03 | 99 | 1013.5 |
| 20260506142735 | 0 | 337 | 0.0 | 0.0 | 0.00 | 0.03 | 0.03 | 99 | 1013.3 |
| 20260506142233 | 0 | 337 | 0.0 | 0.0 | 0.00 | 0.03 | 0.03 | 99 | 1013.1 |
| 20260506141731 | 0 | 337 | 0.0 | 0.0 | 0.00 | 0.03 | 0.03 | 99 | 1013.1 |
| 20260506141229 | 0 | 338 | 0.0 | 0.0 | 0.00 | 0.03 | 0.03 | 99 | 1013.0 |
| 20260506140726 | 0 | 338 | 0.0 | 0.0 | 0.00 | 0.03 | 0.03 | 99 | 1013.1 |
| 20260506140223 | 0 | 338 | 0.0 | 0.0 | 0.00 | 0.03 | 0.03 | 99 | 1012.9 |
| 20260506135720 | 0 | 338 | 0.0 | 0.0 | 0.00 | 0.03 | 0.03 | 99 | 1012.8 |
| 20260506135216 | 0 | 339 | 0.0 | 0.0 | 0.00 | 0.03 | 0.03 | 99 | 1012.8 |
| 20260506134713 | 0 | 339 | 0.0 | 0.0 | 0.00 | 0.03 | 0.03 | 99 | 1012.9 |
| 20260506134209 | 0 | 339 | 0.0 | 0.0 | 0.00 | 0.03 | 0.03 | 99 | 1012.9 |
| 20260506133707 | 0 | 339 | 0.0 | 0.0 | 0.00 | 0.03 | 0.03 | 99 | 1013.0 |
| 20260506133203 | 0 | 339 | 0.0 | 0.0 | 0.00 | 0.03 | 0.03 | 99 | 1013.0 |
| 20260506132700 | 0 | 339 | 0.0 | 0.0 | 0.00 | 0.03 | 0.03 | 99 | 1012.9 |
| 20260506132157 | 0 | 339 | 0.0 | 0.0 | 0.00 | 0.03 | 0.03 | 99 | 1012.8 |
| 20260506131655 | 0 | 339 | 0.0 | 0.0 | 0.00 | 0.03 | 0.03 | 99 | 1012.5 |
| 20260506131150 | 0 | 339 | 0.0 | 0.0 | 0.00 | 0.03 | 0.03 | 99 | 1012.7 |
| 20260506130647 | 0 | 339 | 0.0 | 0.0 | 0.00 | 0.03 | 0.03 | 99 | 1012.5 |
| 20260506130145 | 0 | 339 | 0.0 | 0.0 | 0.00 | 0.03 | 0.03 | 99 | 1012.3 |
| 20260506125643 | 0 | 339 | 0.0 | 0.0 | 0.00 | 0.03 | 0.03 | 99 | 1012.2 |
| 20260506125140 | 0 | 339 | 0.0 | 0.0 | 0.00 | 0.03 | 0.03 | 99 | 1012.3 |
| 20260506124638 | -1 | 339 | 0.0 | 0.0 | 0.00 | 0.03 | 0.03 | 99 | 1012.0 |
| 20260506124136 | -1 | 339 | 0.0 | 0.0 | 0.00 | 0.03 | 0.03 | 99 | 1012.0 |
| 20260506123633 | -1 | 339 | 0.0 | 0.0 | 0.00 | 0.03 | 0.03 | 99 | 1012.2 |
| 20260506123132 | -1 | 339 | 0.0 | 0.0 | 0.00 | 0.03 | 0.03 | 99 | 1011.8 |
| 20260506122628 | -1 | 339 | 0.0 | 0.0 | 0.00 | 0.03 | 0.03 | 99 | 1012.2 |
| 20260506122126 | -1 | 339 | 0.0 | 0.0 | 0.00 | 0.03 | 0.03 | 99 | 1012.0 |
| 20260506121624 | -1 | 339 | 0.0 | 0.0 | 0.00 | 0.03 | 0.03 | 99 | 1011.8 |
| 20260506121120 | -1 | 339 | 0.0 | 0.0 | 0.00 | 0.03 | 0.03 | 99 | 1011.7 |
| 20260506120618 | -1 | 339 | 0.0 | 0.0 | 0.00 | 0.03 | 0.03 | 99 | 1011.7 |
| 20260506120115 | -1 | 339 | 0.0 | 0.0 | 0.00 | 0.03 | 0.03 | 99 | 1012.0 |
| 20260506115614 | -1 | 339 | 0.0 | 0.0 | 0.00 | 0.03 | 0.03 | 99 | 1011.8 |
| 20260506115111 | -1 | 339 | 0.0 | 0.0 | 0.00 | 0.03 | 0.03 | 99 | 1011.7 |
| 20260506114608 | 0 | 339 | 0.0 | 0.0 | 0.00 | 0.03 | 0.03 | 99 | 1011.4 |
| 20260506114106 | -1 | 339 | 0.0 | 0.0 | 0.00 | 0.03 | 0.03 | 99 | 1011.6 |
| 20260506113604 | -1 | 339 | 0.0 | 0.0 | 0.00 | 0.03 | 0.03 | 99 | 1011.6 |
| 20260506113101 | 0 | 339 | 0.0 | 0.0 | 0.00 | 0.03 | 0.03 | 99 | 1011.5 |
| 20260506112557 | 0 | 339 | 0.0 | 0.0 | 0.00 | 0.03 | 0.03 | 99 | 1011.7 |
| 20260506112055 | 0 | 339 | 0.0 | 0.0 | 0.00 | 0.03 | 0.03 | 99 | 1011.3 |
| 20260506111553 | 0 | 339 | 0.0 | 0.0 | 0.00 | 0.03 | 0.03 | 99 | 1011.0 |
| 20260506111050 | 0 | 339 | 0.0 | 0.0 | 0.00 | 0.03 | 0.03 | 99 | 1011.3 |
| 20260506110547 | 0 | 339 | 0.0 | 0.0 | 0.00 | 0.03 | 0.03 | 99 | 1011.5 |
| 20260506110044 | 0 | 339 | 0.0 | 0.0 | 0.00 | 0.03 | 0.03 | 99 | 1011.4 |
| 20260506105540 | 0 | 339 | 0.0 | 0.0 | 0.00 | 0.03 | 0.03 | 99 | 1011.3 |
| 20260506105038 | 0 | 339 | 0.0 | 0.0 | 0.00 | 0.03 | 0.03 | 99 | 1011.5 |
| 20260506104536 | 0 | 339 | 0.0 | 0.0 | 0.00 | 0.03 | 0.03 | 99 | 1011.4 |
| 20260506104034 | 0 | 339 | 0.0 | 0.0 | 0.00 | 0.03 | 0.03 | 99 | 1011.3 |
| 20260506103531 | 0 | 339 | 0.0 | 0.0 | 0.00 | 0.03 | 0.03 | 99 | 1011.4 |
| 20260506103027 | 0 | 339 | 0.0 | 0.0 | 0.00 | 0.03 | 0.03 | 99 | 1011.6 |
| 20260506102526 | 0 | 339 | 0.0 | 0.0 | 0.00 | 0.03 | 0.03 | 99 | 1011.1 |
| 20260506102023 | 0 | 339 | 0.0 | 0.0 | 0.00 | 0.03 | 0.03 | 99 | 1011.0 |
| 20260506101519 | 0 | 339 | 0.0 | 0.0 | 0.00 | 0.03 | 0.03 | 99 | 1011.4 |
| 20260506101016 | 0 | 339 | 0.0 | 0.0 | 0.00 | 0.03 | 0.03 | 99 | 1011.5 |
| 20260506100514 | 0 | 339 | 0.0 | 0.0 | 0.00 | 0.03 | 0.03 | 99 | 1011.4 |
| 20260506100012 | 0 | 339 | 0.0 | 0.0 | 0.00 | 0.03 | 0.03 | 99 | 1011.4 |
| 20260506095511 | 0 | 339 | 0.0 | 0.0 | 0.00 | 0.03 | 0.03 | 99 | 1011.3 |
| 20260506095001 | 0 | 339 | 0.0 | 0.0 | 0.00 | 0.03 | 0.03 | 99 | 1011.1 |
| 20260506094459 | 0 | 339 | 0.0 | 0.0 | 0.00 | 0.03 | 0.03 | 99 | 1011.0 |
| 20260506093956 | 0 | 339 | 0.0 | 0.0 | 0.00 | 0.03 | 0.03 | 99 | 1011.3 |
| 20260506093454 | 0 | 339 | 0.0 | 0.0 | 0.00 | 0.03 | 0.03 | 99 | 1011.0 |
| 20260506092952 | 0 | 339 | 0.0 | 0.0 | 0.00 | 0.03 | 0.03 | 99 | 1010.9 |
| 20260506092449 | 0 | 339 | 0.0 | 0.0 | 0.00 | 0.03 | 0.03 | 99 | 1011.0 |
| 20260506091946 | 0 | 339 | 0.0 | 0.0 | 0.00 | 0.03 | 0.03 | 99 | 1010.9 |
| 20260506091444 | 0 | 339 | 0.0 | 0.0 | 0.00 | 0.03 | 0.03 | 99 | 1011.0 |
| 20260506090941 | 0 | 339 | 0.0 | 0.0 | 0.00 | 0.03 | 0.03 | 99 | 1010.8 |
| 20260506090440 | 0 | 339 | 0.0 | 0.0 | 0.00 | 0.03 | 0.03 | 99 | 1010.9 |
| 20260506085935 | 0 | 339 | 0.0 | 0.0 | 0.00 | 0.03 | 0.03 | 99 | 1010.9 |
| 20260506085432 | 0 | 339 | 0.0 | 0.0 | 0.00 | 0.03 | 0.03 | 99 | 1010.8 |
| 20260506084928 | 0 | 339 | 0.0 | 0.0 | 0.00 | 0.03 | 0.03 | 99 | 1011.0 |
| 20260506084426 | 0 | 339 | 0.0 | 0.0 | 0.00 | 0.03 | 0.03 | 99 | 1011.0 |
| 20260506083921 | 0 | 339 | 0.0 | 0.0 | 0.00 | 0.03 | 0.03 | 99 | 1011.1 |
| 20260506083419 | 0 | 339 | 0.0 | 0.0 | 0.00 | 0.03 | 0.03 | 99 | 1011.1 |
| 20260506082916 | 0 | 339 | 0.0 | 0.0 | 0.00 | 0.03 | 0.03 | 99 | 1011.0 |
| 20260506082413 | 0 | 339 | 0.0 | 0.0 | 0.00 | 0.03 | 0.03 | 99 | 1011.3 |
| 20260506081908 | 0 | 339 | 0.0 | 0.0 | 0.00 | 0.03 | 0.03 | 99 | 1011.3 |
| 20260506081408 | 0 | 339 | 0.0 | 0.0 | 0.00 | 0.03 | 0.03 | 99 | 1011.3 |
| 20260506080904 | 0 | 339 | 0.0 | 0.0 | 0.00 | 0.03 | 0.03 | 99 | 1011.3 |
| 20260506080401 | 0 | 339 | 0.0 | 0.0 | 0.00 | 0.03 | 0.03 | 99 | 1011.1 |
| 20260506073345 | 0 | 339 | 0.0 | 0.0 | 0.00 | 0.03 | 0.03 | 99 | 1011.1 |
| 20260506072842 | 0 | 339 | 0.0 | 0.0 | 0.00 | 0.03 | 0.03 | 99 | 1011.1 |
| 20260506072340 | 0 | 339 | 0.0 | 0.0 | 0.00 | 0.03 | 0.03 | 99 | 1011.3 |
| 20260506071837 | 0 | 339 | 0.0 | 0.0 | 0.18 | 0.03 | 0.03 | 99 | 1011.1 |
| 20260506071335 | 0 | 339 | 0.0 | 0.0 | 0.18 | 0.03 | 0.03 | 99 | 1011.0 |
| 20260506070832 | 0 | 339 | 0.0 | 0.0 | 0.00 | 0.00 | 0.00 | 99 | 1011.0 |
| 20260506070328 | 0 | 339 | 0.0 | 0.0 | 0.00 | 0.00 | 0.00 | 99 | 1011.1 |
| 20260506062306 | 0 | 339 | 0.0 | 0.0 | 0.00 | 0.00 | 0.00 | 98 | 1010.7 |
| 20260506061801 | 0 | 339 | 0.0 | 0.0 | 0.00 | 0.00 | 0.00 | 98 | 1010.9 |
| 20260506061259 | 0 | 339 | 0.0 | 0.0 | 0.00 | 0.00 | 0.00 | 97 | 1010.6 |
| 20260506060757 | 0 | 339 | 0.0 | 0.0 | 0.00 | 0.00 | 0.00 | 97 | 1010.7 |
| 20260506060254 | 0 | 339 | 0.0 | 0.0 | 0.00 | 0.00 | 0.00 | 97 | 1010.4 |
| 20260506051226 | 0 | 339 | 0.0 | 0.0 | 0.00 | 2.95 | 2.95 | 96 | 1010.4 |
| 20260506050724 | 0 | 340 | 0.0 | 0.0 | 0.00 | 2.95 | 2.95 | 96 | 1010.4 |
| 20260506050221 | 0 | 340 | 0.0 | 0.0 | 0.00 | 2.95 | 2.95 | 96 | 1010.6 |
| 20260506044712 | 0 | 340 | 0.0 | 0.0 | 0.00 | 2.95 | 2.95 | 96 | 1010.4 |
| 20260506044209 | 0 | 340 | 0.0 | 0.0 | 0.13 | 2.95 | 2.95 | 96 | 1010.2 |
| 20260506043707 | 0 | 340 | 0.0 | 0.0 | 0.13 | 2.95 | 2.95 | 95 | 1010.2 |
| 20260506043204 | 0 | 340 | 0.0 | 0.0 | 0.00 | 2.92 | 2.92 | 95 | 1010.6 |
| 20260506042703 | 0 | 340 | 0.0 | 0.0 | 0.00 | 2.92 | 2.92 | 95 | 1010.7 |
| 20260506042201 | 0 | 340 | 0.0 | 0.0 | 0.00 | 2.92 | 2.92 | 95 | 1010.4 |
| 20260506041659 | 0 | 340 | 0.0 | 0.0 | 0.00 | 2.92 | 2.92 | 95 | 1010.8 |
| 20260506041155 | 0 | 340 | 0.0 | 0.0 | 0.00 | 2.92 | 2.92 | 95 | 1010.6 |
| 20260506040653 | 0 | 340 | 0.0 | 0.0 | 0.00 | 2.92 | 2.92 | 95 | 1010.2 |
| 20260506040144 | 0 | 340 | 0.0 | 0.0 | 0.00 | 2.92 | 2.92 | 95 | 1010.4 |
| 20260506035641 | 0 | 340 | 0.0 | 0.0 | 0.00 | 2.92 | 2.92 | 95 | 1010.2 |
| 20260506035137 | 0 | 340 | 0.0 | 0.0 | 0.00 | 2.92 | 2.92 | 95 | 1010.3 |
| 20260506034635 | 0 | 340 | 0.0 | 0.0 | 0.00 | 2.92 | 2.92 | 95 | 1010.6 |
| 20260506034131 | 0 | 340 | 0.0 | 0.0 | 0.00 | 2.92 | 2.92 | 95 | 1010.3 |
| 20260506033629 | 0 | 340 | 0.0 | 0.0 | 0.00 | 2.92 | 2.92 | 95 | 1010.1 |
| 20260506033126 | 0 | 340 | 0.0 | 0.0 | 0.00 | 2.92 | 2.92 | 95 | 1010.2 |
| 20260506032623 | 0 | 340 | 0.0 | 0.0 | 0.00 | 2.92 | 2.92 | 95 | 1010.0 |
| 20260506032120 | 0 | 340 | 0.0 | 0.0 | 0.00 | 2.92 | 2.92 | 95 | 1009.7 |
| 20260506031617 | 0 | 340 | 4.8 | 4.8 | 0.00 | 2.92 | 2.92 | 95 | 1010.0 |
| 20260506031114 | 0 | 340 | 4.8 | 4.8 | 0.00 | 2.92 | 2.92 | 95 | 1009.6 |
| 20260506030612 | 0 | 340 | 8.0 | 11.3 | 0.18 | 2.92 | 2.92 | 95 | 1009.8 |
| 20260506030109 | 0 | 340 | 6.4 | 11.3 | 0.18 | 2.92 | 2.92 | 95 | 1009.7 |
| 20260506025606 | 0 | 340 | 8.0 | 11.3 | 0.00 | 2.90 | 2.90 | 95 | 1009.7 |
| 20260506025102 | 0 | 340 | 8.0 | 8.0 | 0.00 | 2.90 | 2.90 | 95 | 1009.4 |
| 20260506024559 | 0 | 340 | 8.0 | 9.7 | 0.00 | 2.90 | 2.90 | 95 | 1009.3 |
| 20260506024055 | 0 | 340 | 8.0 | 9.7 | 0.00 | 2.90 | 2.90 | 95 | 1009.1 |
| 20260506023551 | 0 | 340 | 3.2 | 9.7 | 0.00 | 2.90 | 2.90 | 95 | 1009.3 |
| 20260506023049 | 0 | 341 | 6.4 | 11.3 | 0.00 | 2.90 | 2.90 | 95 | 1008.8 |
| 20260506022547 | 0 | 341 | 6.4 | 11.3 | 0.00 | 2.90 | 2.90 | 95 | 1008.9 |
| 20260506022044 | 0 | 341 | 6.4 | 9.7 | 0.00 | 2.90 | 2.90 | 94 | 1009.0 |
| 20260506021541 | 0 | 341 | 8.0 | 9.7 | 0.00 | 2.90 | 2.90 | 94 | 1008.7 |
| 20260506021039 | 0 | 341 | 6.4 | 11.3 | 0.00 | 2.90 | 2.90 | 94 | 1008.7 |
| 20260506020536 | 0 | 341 | 6.4 | 12.9 | 0.00 | 2.90 | 2.90 | 94 | 1008.7 |
| 20260506020033 | 0 | 342 | 4.8 | 9.7 | 0.00 | 2.90 | 2.90 | 94 | 1008.6 |
| 20260506015531 | 0 | 342 | 9.7 | 11.3 | 0.00 | 2.90 | 2.90 | 94 | 1008.4 |
| 20260506015027 | 0 | 343 | 8.0 | 9.7 | 0.00 | 2.90 | 2.90 | 94 | 1008.6 |
| 20260506014525 | 0 | 331 | 9.7 | 11.3 | 0.00 | 2.90 | 2.90 | 94 | 1008.8 |
| 20260506014021 | 0 | 340 | 8.0 | 9.7 | 0.00 | 2.90 | 2.90 | 94 | 1008.3 |
| 20260506013519 | 0 | 307 | 4.8 | 8.0 | 0.00 | 2.90 | 2.90 | 94 | 1008.6 |
| 20260506013015 | 0 | 320 | 9.7 | 14.5 | 0.00 | 2.90 | 2.90 | 94 | 1008.4 |
| 20260506012511 | 0 | 319 | 9.7 | 14.5 | 0.13 | 2.90 | 2.90 | 94 | 1008.3 |
| 20260506012009 | 0 | 331 | 11.3 | 14.5 | 0.00 | 2.87 | 2.87 | 94 | 1008.3 |
| 20260506011506 | 0 | 321 | 6.4 | 9.7 | 0.00 | 2.87 | 2.87 | 94 | 1008.3 |
| 20260506011002 | 0 | 336 | 4.8 | 12.9 | 0.00 | 2.87 | 2.87 | 94 | 1008.2 |
| 20260506010502 | 0 | 333 | 4.8 | 12.9 | 0.18 | 2.87 | 2.87 | 94 | 1008.3 |
| 20260506005957 | 0 | 313 | 9.7 | 9.7 | 0.18 | 2.87 | 2.87 | 94 | 1008.4 |
| 20260506005455 | 0 | 324 | 12.9 | 14.5 | 0.00 | 2.84 | 2.84 | 94 | 1008.3 |
| 20260506004950 | 0 | 304 | 11.3 | 14.5 | 0.00 | 2.84 | 2.84 | 94 | 1008.1 |
| 20260506004448 | 0 | 334 | 9.7 | 12.9 | 0.00 | 2.84 | 2.84 | 93 | 1008.2 |
| 20260506003944 | 0 | 338 | 6.4 | 8.0 | 0.00 | 2.84 | 2.84 | 93 | 1008.0 |
| 20260506003441 | 0 | 334 | 1.6 | 3.2 | 0.00 | 2.84 | 2.84 | 93 | 1008.1 |
| 20260506002937 | 0 | 333 | 1.6 | 9.7 | 0.00 | 2.84 | 2.84 | 93 | 1008.2 |
| 20260506002433 | 0 | 331 | 4.8 | 8.0 | 0.00 | 2.84 | 2.84 | 93 | 1008.2 |
| 20260506001928 | 0 | 332 | 6.4 | 8.0 | 0.00 | 2.84 | 2.84 | 93 | 1007.8 |
| 20260506001426 | 0 | 333 | 3.2 | 3.2 | 0.00 | 2.84 | 2.84 | 93 | 1008.0 |
| 20260506000923 | 0 | 333 | 4.8 | 8.0 | 0.00 | 2.84 | 2.84 | 93 | 1008.1 |
| 20260506000423 | 0 | 332 | 4.8 | 8.0 | 0.00 | 2.84 | 2.84 | 93 | 1007.8 |
| 20260505235917 | 0 | 330 | 1.6 | 1.6 | 0.00 | 2.84 | 2.84 | 94 | 1007.7 |
| 20260505235415 | 0 | 330 | 6.4 | 8.0 | 0.00 | 2.84 | 2.84 | 94 | 1007.5 |
| 20260505234912 | 0 | 329 | 8.0 | 8.0 | 0.00 | 2.84 | 2.84 | 94 | 1007.6 |
| 20260505234410 | 0 | 330 | 6.4 | 8.0 | 0.00 | 2.84 | 2.84 | 94 | 1007.8 |
| 20260505233906 | 0 | 332 | 6.4 | 8.0 | 0.00 | 2.84 | 2.84 | 94 | 1007.4 |
| 20260505233404 | 0 | 319 | 4.8 | 11.3 | 0.00 | 2.84 | 2.84 | 93 | 1007.5 |
| 20260505232901 | 0 | 329 | 4.8 | 11.3 | 0.00 | 2.84 | 2.84 | 88 | 1007.8 |
| 20260505232359 | 0 | 326 | 6.4 | 14.5 | 0.00 | 2.84 | 2.84 | 90 | 1007.7 |
| 20260505231855 | 0 | 301 | 8.0 | 9.7 | 0.00 | 2.84 | 2.84 | 94 | 1007.7 |
| 20260505231353 | 0 | 324 | 6.4 | 12.9 | 0.00 | 2.84 | 2.84 | 98 | 1007.4 |
| 20260505230851 | 0 | 315 | 6.4 | 9.7 | 0.00 | 2.84 | 2.84 | 98 | 1007.0 |
| 20260505230348 | 0 | 317 | 4.8 | 8.0 | 0.00 | 2.84 | 2.84 | 98 | 1007.1 |
| 20260505225845 | 0 | 330 | 4.8 | 4.8 | 0.00 | 2.84 | 2.84 | 98 | 1007.5 |
| 20260505225342 | 0 | 330 | 4.8 | 4.8 | 0.00 | 2.84 | 2.84 | 98 | 1007.1 |
| 20260505224837 | 0 | 322 | 4.8 | 4.8 | 0.00 | 2.84 | 2.84 | 97 | 1006.9 |
| 20260505224335 | 0 | 316 | 3.2 | 3.2 | 0.00 | 2.84 | 2.84 | 97 | 1006.8 |
| 20260505223832 | 0 | 319 | 1.6 | 1.6 | 0.00 | 2.84 | 2.84 | 97 | 1006.6 |
| 20260505223329 | 0 | 326 | 0.0 | 0.0 | 0.00 | 2.84 | 2.84 | 97 | 1006.6 |